contact:dominique.lefevre@mio.osupytheas.fr, maurice.libes@osupytheas.fr, didier.mallarino@osupytheas.fr
Project:EMSO http://www.emso-fr.org/EMSO-France
Depth: 2436.0 m
Title:EMSO Ligure Ouest : Data MII capteur MICROCAT
DateTime_Computer,Latitude,Longitude,Temperature,Conductivity,Pressure,DateTime_Instrument
DateTime_Computer,Latitude,Longitude,degC,S m-1,dbar,DateTime_Instrument
2019-11-26T00:01:52Z,42.805,6.029,13.2967,4.59965,2469.876,2019-11-26T02:02:21Z
2019-11-26T00:04:55Z,42.805,6.029,13.2968,4.59966,2469.914,2019-11-26T02:05:24Z
2019-11-26T00:07:59Z,42.805,6.029,13.2970,4.59964,2469.867,2019-11-26T02:08:27Z
2019-11-26T00:11:02Z,42.805,6.029,13.2966,4.59966,2469.876,2019-11-26T02:11:30Z
2019-11-26T00:14:05Z,42.805,6.029,13.2965,4.59964,2469.867,2019-11-26T02:14:34Z
2019-11-26T00:17:08Z,42.805,6.029,13.2967,4.59964,2469.876,2019-11-26T02:17:37Z
2019-11-26T00:20:12Z,42.805,6.029,13.2967,4.59967,2469.853,2019-11-26T02:20:40Z
2019-11-26T00:23:15Z,42.805,6.029,13.2969,4.59963,2469.876,2019-11-26T02:23:43Z
2019-11-26T00:26:18Z,42.805,6.029,13.2971,4.59965,2469.914,2019-11-26T02:26:47Z
2019-11-26T00:29:21Z,42.805,6.029,13.2973,4.59963,2469.853,2019-11-26T02:29:50Z
2019-11-26T00:32:24Z,42.805,6.029,13.2970,4.59963,2469.89,2019-11-26T02:32:53Z
2019-11-26T00:35:28Z,42.805,6.029,13.2970,4.59964,2469.853,2019-11-26T02:35:56Z
2019-11-26T00:38:31Z,42.805,6.029,13.2967,4.59964,2469.876,2019-11-26T02:38:59Z
2019-11-26T00:41:34Z,42.805,6.029,13.2969,4.59964,2469.853,2019-11-26T02:42:03Z
2019-11-26T00:44:37Z,42.805,6.029,13.2968,4.59963,2469.83,2019-11-26T02:45:06Z
2019-11-26T00:47:40Z,42.805,6.029,13.2964,4.59964,2469.853,2019-11-26T02:48:09Z
2019-11-26T00:50:44Z,42.805,6.029,13.2967,4.59967,2469.89,2019-11-26T02:51:12Z
2019-11-26T00:53:47Z,42.805,6.029,13.2971,4.59964,2469.876,2019-11-26T02:54:15Z
2019-11-26T00:56:50Z,42.805,6.029,13.2968,4.59965,2469.89,2019-11-26T02:57:18Z
2019-11-26T00:59:53Z,42.805,6.029,13.2968,4.59966,2469.867,2019-11-26T03:00:22Z
2019-11-26T01:02:56Z,42.805,6.029,13.2966,4.59964,2469.89,2019-11-26T03:03:25Z
2019-11-26T01:05:59Z,42.805,6.029,13.2969,4.59966,2469.867,2019-11-26T03:06:28Z
2019-11-26T01:09:03Z,42.805,6.029,13.2966,4.59966,2469.89,2019-11-26T03:09:31Z
2019-11-26T01:12:06Z,42.805,6.029,13.2967,4.59967,2469.853,2019-11-26T03:12:34Z
2019-11-26T01:15:09Z,42.805,6.029,13.2967,4.59966,2469.83,2019-11-26T03:15:38Z
2019-11-26T01:18:12Z,42.805,6.029,13.2971,4.59965,2469.853,2019-11-26T03:18:41Z
2019-11-26T01:21:15Z,42.805,6.029,13.2969,4.59966,2469.876,2019-11-26T03:21:44Z
2019-11-26T01:24:18Z,42.805,6.029,13.2967,4.59966,2469.853,2019-11-26T03:24:47Z
2019-11-26T01:27:22Z,42.805,6.029,13.2968,4.59965,2469.876,2019-11-26T03:27:50Z
2019-11-26T01:30:25Z,42.805,6.029,13.2967,4.59966,2469.853,2019-11-26T03:30:53Z
2019-11-26T01:33:28Z,42.805,6.029,13.2968,4.59966,2469.853,2019-11-26T03:33:57Z
2019-11-26T01:36:31Z,42.805,6.029,13.2967,4.59966,2469.853,2019-11-26T03:37:00Z
2019-11-26T01:39:35Z,42.805,6.029,13.2967,4.59966,2469.853,2019-11-26T03:40:03Z
2019-11-26T01:42:38Z,42.805,6.029,13.2967,4.59966,2469.853,2019-11-26T03:43:06Z
2019-11-26T01:45:41Z,42.805,6.029,13.2967,4.59968,2469.853,2019-11-26T03:46:10Z
2019-11-26T01:48:44Z,42.805,6.029,13.2967,4.59966,2469.853,2019-11-26T03:49:13Z
2019-11-26T01:51:47Z,42.805,6.029,13.2968,4.59967,2469.867,2019-11-26T03:52:16Z
2019-11-26T01:54:51Z,42.805,6.029,13.2967,4.59966,2469.867,2019-11-26T03:55:19Z
2019-11-26T01:57:54Z,42.805,6.029,13.2968,4.59966,2469.867,2019-11-26T03:58:22Z
2019-11-26T02:00:57Z,42.805,6.029,13.2969,4.59966,2469.9,2019-11-26T04:01:25Z
2019-11-26T02:04:00Z,42.805,6.029,13.2968,4.59966,2469.89,2019-11-26T04:04:29Z
2019-11-26T02:07:03Z,42.805,6.029,13.2969,4.59967,2469.937,2019-11-26T04:07:32Z
2019-11-26T02:10:07Z,42.805,6.029,13.2968,4.59967,2469.876,2019-11-26T04:10:35Z
2019-11-26T02:13:10Z,42.805,6.029,13.2971,4.59967,2469.83,2019-11-26T04:13:38Z
2019-11-26T02:16:13Z,42.805,6.029,13.2968,4.59967,2469.876,2019-11-26T04:16:41Z
2019-11-26T02:19:16Z,42.805,6.029,13.2971,4.59966,2469.853,2019-11-26T04:19:45Z
2019-11-26T02:22:19Z,42.805,6.029,13.2971,4.59967,2469.844,2019-11-26T04:22:48Z
2019-11-26T02:25:23Z,42.805,6.029,13.2971,4.59966,2469.914,2019-11-26T04:25:51Z
2019-11-26T02:28:26Z,42.805,6.029,13.2969,4.59967,2469.876,2019-11-26T04:28:54Z
2019-11-26T02:31:29Z,42.805,6.029,13.2968,4.59968,2469.876,2019-11-26T04:31:58Z
2019-11-26T02:34:32Z,42.805,6.029,13.2964,4.59966,2469.89,2019-11-26T04:35:01Z
2019-11-26T02:37:35Z,42.805,6.029,13.2970,4.59968,2469.914,2019-11-26T04:38:04Z
2019-11-26T02:40:39Z,42.805,6.029,13.2970,4.59967,2469.9,2019-11-26T04:41:07Z
2019-11-26T02:43:42Z,42.805,6.029,13.2967,4.59968,2469.914,2019-11-26T04:44:10Z
2019-11-26T02:46:45Z,42.805,6.029,13.2974,4.59969,2469.9,2019-11-26T04:47:14Z
2019-11-26T02:49:48Z,42.805,6.029,13.2970,4.59967,2469.914,2019-11-26T04:50:17Z
2019-11-26T02:52:51Z,42.805,6.029,13.2967,4.59966,2469.923,2019-11-26T04:53:20Z
2019-11-26T02:55:55Z,42.805,6.029,13.2968,4.59966,2469.914,2019-11-26T04:56:23Z
2019-11-26T02:58:58Z,42.805,6.029,13.2971,4.59966,2469.914,2019-11-26T04:59:26Z
2019-11-26T03:02:01Z,42.805,6.029,13.2972,4.59966,2469.914,2019-11-26T05:02:29Z
2019-11-26T03:05:04Z,42.805,6.029,13.2967,4.59966,2469.9,2019-11-26T05:05:33Z
2019-11-26T03:08:07Z,42.805,6.029,13.2968,4.59967,2469.914,2019-11-26T05:08:36Z
2019-11-26T03:11:10Z,42.805,6.029,13.2967,4.59967,2469.96,2019-11-26T05:11:39Z
2019-11-26T03:14:14Z,42.805,6.029,13.2971,4.59967,2469.937,2019-11-26T05:14:42Z
2019-11-26T03:17:17Z,42.805,6.029,13.2970,4.59966,2469.9,2019-11-26T05:17:45Z
2019-11-26T03:20:20Z,42.805,6.029,13.2971,4.59966,2469.96,2019-11-26T05:20:49Z
2019-11-26T03:23:23Z,42.805,6.029,13.2971,4.59966,2469.97,2019-11-26T05:23:52Z
2019-11-26T03:26:26Z,42.805,6.029,13.2968,4.59966,2469.937,2019-11-26T05:26:55Z
2019-11-26T03:29:30Z,42.805,6.029,13.2968,4.59966,2469.96,2019-11-26T05:29:58Z
2019-11-26T03:32:33Z,42.805,6.029,13.2971,4.59966,2469.947,2019-11-26T05:33:02Z
2019-11-26T03:35:36Z,42.805,6.029,13.2968,4.59966,2469.984,2019-11-26T05:36:05Z
2019-11-26T03:38:39Z,42.805,6.029,13.2971,4.59966,2469.97,2019-11-26T05:39:08Z
2019-11-26T03:41:43Z,42.805,6.029,13.2969,4.59966,2469.97,2019-11-26T05:42:11Z
2019-11-26T03:44:46Z,42.805,6.029,13.2967,4.59966,2469.97,2019-11-26T05:45:14Z
2019-11-26T03:47:49Z,42.805,6.029,13.2965,4.59968,2469.993,2019-11-26T05:48:18Z
2019-11-26T03:50:52Z,42.805,6.029,13.2967,4.59966,2469.97,2019-11-26T05:51:21Z
2019-11-26T03:53:55Z,42.805,6.029,13.2967,4.59966,2469.97,2019-11-26T05:54:24Z
2019-11-26T03:56:59Z,42.805,6.029,13.2966,4.59965,2469.97,2019-11-26T05:57:27Z
2019-11-26T04:00:02Z,42.805,6.029,13.2968,4.59966,2470.007,2019-11-26T06:00:30Z
2019-11-26T04:03:05Z,42.805,6.029,13.2967,4.59966,2470.017,2019-11-26T06:03:34Z
2019-11-26T04:06:08Z,42.805,6.029,13.2967,4.59966,2470.017,2019-11-26T06:06:37Z
2019-11-26T04:09:11Z,42.805,6.029,13.2968,4.59966,2469.993,2019-11-26T06:09:40Z
2019-11-26T04:12:15Z,42.805,6.029,13.2967,4.59966,2470.007,2019-11-26T06:12:43Z
2019-11-26T04:15:18Z,42.805,6.029,13.2967,4.59966,2470.04,2019-11-26T06:15:46Z
2019-11-26T04:18:21Z,42.805,6.029,13.2968,4.59967,2469.984,2019-11-26T06:18:50Z
2019-11-26T04:21:24Z,42.805,6.029,13.2966,4.59966,2469.993,2019-11-26T06:21:53Z
2019-11-26T04:24:27Z,42.805,6.029,13.2972,4.59966,2470.03,2019-11-26T06:24:56Z
2019-11-26T04:27:31Z,42.805,6.029,13.2969,4.59966,2470.053,2019-11-26T06:27:59Z
2019-11-26T04:30:34Z,42.805,6.029,13.2968,4.59967,2470.007,2019-11-26T06:31:02Z
2019-11-26T04:33:37Z,42.805,6.029,13.2967,4.59966,2470.03,2019-11-26T06:34:06Z
2019-11-26T04:36:40Z,42.805,6.029,13.2967,4.59966,2470.04,2019-11-26T06:37:09Z
2019-11-26T04:39:43Z,42.805,6.029,13.2968,4.59966,2470.03,2019-11-26T06:40:12Z
2019-11-26T04:42:47Z,42.805,6.029,13.2967,4.59967,2470.04,2019-11-26T06:43:15Z
2019-11-26T04:45:50Z,42.805,6.029,13.2970,4.59966,2470.077,2019-11-26T06:46:19Z
2019-11-26T04:48:53Z,42.805,6.029,13.2967,4.59965,2470.04,2019-11-26T06:49:22Z
2019-11-26T04:51:57Z,42.805,6.029,13.2966,4.59966,2470.053,2019-11-26T06:52:25Z
2019-11-26T04:55:00Z,42.805,6.029,13.2967,4.59966,2470.03,2019-11-26T06:55:28Z
2019-11-26T04:58:03Z,42.805,6.029,13.2967,4.59967,2470.017,2019-11-26T06:58:32Z
2019-11-26T05:01:06Z,42.805,6.029,13.2967,4.59968,2470.053,2019-11-26T07:01:35Z
2019-11-26T05:04:09Z,42.805,6.029,13.2968,4.59966,2470.03,2019-11-26T07:04:38Z
2019-11-26T05:07:13Z,42.805,6.029,13.2972,4.59966,2470.04,2019-11-26T07:07:41Z
2019-11-26T05:10:16Z,42.805,6.029,13.2969,4.59966,2470.1,2019-11-26T07:10:44Z
2019-11-26T05:13:19Z,42.805,6.029,13.2968,4.59966,2470.077,2019-11-26T07:13:48Z
2019-11-26T05:16:22Z,42.805,6.029,13.2968,4.59966,2470.1,2019-11-26T07:16:51Z
2019-11-26T05:19:25Z,42.805,6.029,13.2968,4.59966,2470.063,2019-11-26T07:19:54Z
2019-11-26T05:22:29Z,42.805,6.029,13.2974,4.59966,2470.063,2019-11-26T07:22:57Z
2019-11-26T05:25:32Z,42.805,6.029,13.2967,4.59966,2470.04,2019-11-26T07:26:00Z
2019-11-26T05:28:35Z,42.805,6.029,13.2968,4.59966,2470.063,2019-11-26T07:29:04Z
2019-11-26T05:31:38Z,42.805,6.029,13.2967,4.59966,2470.1,2019-11-26T07:32:07Z
2019-11-26T05:34:42Z,42.805,6.029,13.2968,4.59968,2470.087,2019-11-26T07:35:10Z
2019-11-26T05:37:45Z,42.805,6.029,13.2970,4.59966,2470.1,2019-11-26T07:38:14Z
2019-11-26T05:40:48Z,42.805,6.029,13.2968,4.59967,2470.087,2019-11-26T07:41:17Z
2019-11-26T05:43:51Z,42.805,6.029,13.2967,4.59966,2470.087,2019-11-26T07:44:20Z
2019-11-26T05:46:55Z,42.805,6.029,13.2965,4.59966,2470.1,2019-11-26T07:47:23Z
2019-11-26T05:49:58Z,42.805,6.029,13.2974,4.59966,2470.1,2019-11-26T07:50:27Z
2019-11-26T05:53:01Z,42.805,6.029,13.2968,4.59966,2470.11,2019-11-26T07:53:30Z
2019-11-26T05:56:04Z,42.805,6.029,13.2967,4.59966,2470.063,2019-11-26T07:56:33Z
2019-11-26T05:59:08Z,42.805,6.029,13.2968,4.59967,2470.063,2019-11-26T07:59:36Z
2019-11-26T06:02:11Z,42.805,6.029,13.2968,4.59967,2470.087,2019-11-26T08:02:40Z
2019-11-26T06:05:14Z,42.805,6.029,13.2967,4.59966,2470.087,2019-11-26T08:05:43Z
2019-11-26T06:08:17Z,42.805,6.029,13.2966,4.59967,2470.133,2019-11-26T08:08:46Z
2019-11-26T06:11:21Z,42.805,6.029,13.2964,4.59966,2470.124,2019-11-26T08:11:49Z
2019-11-26T06:14:24Z,42.805,6.029,13.2964,4.59966,2470.11,2019-11-26T08:14:52Z
2019-11-26T06:17:27Z,42.805,6.029,13.2968,4.59966,2470.063,2019-11-26T08:17:55Z
2019-11-26T06:20:30Z,42.805,6.029,13.2967,4.59969,2470.11,2019-11-26T08:20:59Z
2019-11-26T06:23:33Z,42.805,6.029,13.2966,4.59966,2470.1,2019-11-26T08:24:02Z
2019-11-26T06:26:36Z,42.805,6.029,13.2968,4.59966,2470.124,2019-11-26T08:27:05Z
2019-11-26T06:29:40Z,42.805,6.029,13.2967,4.59966,2470.133,2019-11-26T08:30:08Z
2019-11-26T06:32:43Z,42.805,6.029,13.2964,4.59967,2470.147,2019-11-26T08:33:11Z
2019-11-26T06:35:46Z,42.805,6.029,13.2968,4.59967,2470.143,2019-11-26T08:36:15Z
2019-11-26T06:38:49Z,42.805,6.029,13.2967,4.59966,2470.147,2019-11-26T08:39:18Z
2019-11-26T06:41:52Z,42.805,6.029,13.2968,4.59966,2470.133,2019-11-26T08:42:21Z
2019-11-26T06:44:56Z,42.805,6.029,13.2968,4.59968,2470.11,2019-11-26T08:45:24Z
2019-11-26T06:47:59Z,42.805,6.029,13.2964,4.59966,2470.124,2019-11-26T08:48:27Z
2019-11-26T06:51:02Z,42.805,6.029,13.2967,4.59966,2470.133,2019-11-26T08:51:31Z
2019-11-26T06:54:05Z,42.805,6.029,13.2968,4.59968,2470.133,2019-11-26T08:54:34Z
2019-11-26T06:57:08Z,42.805,6.029,13.2969,4.59966,2470.147,2019-11-26T08:57:37Z
2019-11-26T07:00:12Z,42.805,6.029,13.2968,4.59967,2470.147,2019-11-26T09:00:40Z
2019-11-26T07:03:15Z,42.805,6.029,13.2965,4.59967,2470.124,2019-11-26T09:03:43Z
2019-11-26T07:06:18Z,42.805,6.029,13.2965,4.59966,2470.133,2019-11-26T09:06:47Z
2019-11-26T07:09:21Z,42.805,6.029,13.2966,4.59968,2470.11,2019-11-26T09:09:50Z
2019-11-26T07:12:24Z,42.805,6.029,13.2967,4.59966,2470.171,2019-11-26T09:12:53Z
2019-11-26T07:15:28Z,42.805,6.029,13.2967,4.59966,2470.147,2019-11-26T09:15:56Z
2019-11-26T07:18:31Z,42.805,6.029,13.2968,4.59966,2470.133,2019-11-26T09:18:59Z
2019-11-26T07:21:34Z,42.805,6.029,13.2967,4.59966,2470.147,2019-11-26T09:22:03Z
2019-11-26T07:24:37Z,42.805,6.029,13.2967,4.59966,2470.147,2019-11-26T09:25:06Z
2019-11-26T07:27:40Z,42.805,6.029,13.2968,4.59966,2470.156,2019-11-26T09:28:09Z
2019-11-26T07:30:44Z,42.805,6.029,13.2965,4.59966,2470.11,2019-11-26T09:31:12Z
2019-11-26T07:33:47Z,42.805,6.029,13.2966,4.59966,2470.147,2019-11-26T09:34:15Z
2019-11-26T07:36:50Z,42.805,6.029,13.2970,4.59965,2470.147,2019-11-26T09:37:19Z
2019-11-26T07:39:53Z,42.805,6.029,13.2968,4.59966,2470.11,2019-11-26T09:40:22Z
2019-11-26T07:42:56Z,42.805,6.029,13.2974,4.59966,2470.147,2019-11-26T09:43:25Z
2019-11-26T07:46:00Z,42.805,6.029,13.2968,4.59966,2470.147,2019-11-26T09:46:28Z
2019-11-26T07:49:03Z,42.805,6.029,13.2968,4.59967,2470.087,2019-11-26T09:49:31Z
2019-11-26T07:52:06Z,42.805,6.029,13.2970,4.59966,2470.147,2019-11-26T09:52:35Z
2019-11-26T07:55:09Z,42.805,6.029,13.2972,4.59967,2470.147,2019-11-26T09:55:38Z
2019-11-26T07:58:12Z,42.805,6.029,13.2963,4.59967,2470.147,2019-11-26T09:58:41Z
2019-11-26T08:01:16Z,42.805,6.029,13.2971,4.59966,2470.11,2019-11-26T10:01:44Z
2019-11-26T08:04:19Z,42.805,6.029,13.2966,4.59967,2470.124,2019-11-26T10:04:47Z
2019-11-26T08:07:22Z,42.805,6.029,13.2966,4.59966,2470.133,2019-11-26T10:07:51Z
2019-11-26T08:10:25Z,42.805,6.029,13.2963,4.59966,2470.133,2019-11-26T10:10:54Z
2019-11-26T08:13:28Z,42.805,6.029,13.2968,4.59968,2470.087,2019-11-26T10:13:57Z
2019-11-26T08:16:32Z,42.805,6.029,13.2964,4.59967,2470.133,2019-11-26T10:17:00Z
2019-11-26T08:19:35Z,42.805,6.029,13.2967,4.59966,2470.1,2019-11-26T10:20:04Z
2019-11-26T08:22:38Z,42.805,6.029,13.2967,4.59966,2470.124,2019-11-26T10:23:07Z
2019-11-26T08:25:41Z,42.805,6.029,13.2965,4.59966,2470.1,2019-11-26T10:26:10Z
2019-11-26T08:28:44Z,42.805,6.029,13.2965,4.59966,2470.124,2019-11-26T10:29:13Z
2019-11-26T08:31:48Z,42.805,6.029,13.2965,4.59966,2470.11,2019-11-26T10:32:16Z
2019-11-26T08:34:51Z,42.805,6.029,13.2967,4.59966,2470.124,2019-11-26T10:35:19Z
2019-11-26T08:37:54Z,42.805,6.029,13.2965,4.59966,2470.11,2019-11-26T10:38:23Z
2019-11-26T08:40:57Z,42.805,6.029,13.2968,4.59966,2470.1,2019-11-26T10:41:26Z
2019-11-26T08:44:01Z,42.805,6.029,13.2968,4.59966,2470.087,2019-11-26T10:44:29Z
2019-11-26T08:47:04Z,42.805,6.029,13.2967,4.59966,2470.087,2019-11-26T10:47:32Z
2019-11-26T08:50:07Z,42.805,6.029,13.2964,4.59965,2470.11,2019-11-26T10:50:36Z
2019-11-26T08:53:10Z,42.805,6.029,13.2971,4.59965,2470.087,2019-11-26T10:53:39Z
2019-11-26T08:56:13Z,42.805,6.029,13.2968,4.59966,2470.087,2019-11-26T10:56:42Z
2019-11-26T08:59:17Z,42.805,6.029,13.2965,4.59968,2470.077,2019-11-26T10:59:45Z
2019-11-26T09:02:20Z,42.805,6.029,13.2966,4.59966,2470.1,2019-11-26T11:02:48Z
2019-11-26T09:05:23Z,42.805,6.029,13.2967,4.59964,2470.11,2019-11-26T11:05:52Z
2019-11-26T09:08:26Z,42.805,6.029,13.2967,4.59966,2470.124,2019-11-26T11:08:55Z
2019-11-26T09:11:29Z,42.805,6.029,13.2967,4.59966,2470.087,2019-11-26T11:11:58Z
2019-11-26T09:14:33Z,42.805,6.029,13.2966,4.59966,2470.1,2019-11-26T11:15:01Z
2019-11-26T09:17:36Z,42.805,6.029,13.2970,4.59968,2470.11,2019-11-26T11:18:04Z
2019-11-26T09:20:39Z,42.805,6.029,13.2969,4.59964,2470.1,2019-11-26T11:21:08Z
2019-11-26T09:23:42Z,42.805,6.029,13.2965,4.59966,2470.063,2019-11-26T11:24:11Z
2019-11-26T09:26:45Z,42.805,6.029,13.2963,4.59966,2470.063,2019-11-26T11:27:14Z
2019-11-26T09:29:49Z,42.805,6.029,13.2967,4.59965,2470.077,2019-11-26T11:30:17Z
2019-11-26T09:32:52Z,42.805,6.029,13.2967,4.59964,2470.053,2019-11-26T11:33:20Z
2019-11-26T09:35:55Z,42.805,6.029,13.2963,4.59967,2470.087,2019-11-26T11:36:24Z
2019-11-26T09:38:58Z,42.805,6.029,13.2964,4.59965,2470.063,2019-11-26T11:39:27Z
2019-11-26T09:42:02Z,42.805,6.029,13.2966,4.59964,2470.063,2019-11-26T11:42:30Z
2019-11-26T09:45:05Z,42.805,6.029,13.2968,4.59968,2470.087,2019-11-26T11:45:33Z
2019-11-26T09:48:08Z,42.805,6.029,13.2968,4.59964,2470.077,2019-11-26T11:48:36Z
2019-11-26T09:51:11Z,42.805,6.029,13.2967,4.59966,2470.04,2019-11-26T11:51:40Z
2019-11-26T09:54:14Z,42.805,6.029,13.2964,4.59966,2470.077,2019-11-26T11:54:43Z
2019-11-26T09:57:18Z,42.805,6.029,13.2965,4.59967,2470.077,2019-11-26T11:57:46Z
2019-11-26T10:00:21Z,42.805,6.029,13.2966,4.59964,2470.04,2019-11-26T12:00:49Z
2019-11-26T10:03:24Z,42.805,6.029,13.2967,4.59965,2470.077,2019-11-26T12:03:53Z
2019-11-26T10:06:27Z,42.805,6.029,13.2964,4.59969,2470.053,2019-11-26T12:06:56Z
2019-11-26T10:09:30Z,42.805,6.029,13.2963,4.59966,2470.077,2019-11-26T12:09:59Z
2019-11-26T10:12:34Z,42.805,6.029,13.2962,4.59964,2470.063,2019-11-26T12:13:02Z
2019-11-26T10:15:37Z,42.805,6.029,13.2964,4.59964,2470.053,2019-11-26T12:16:05Z
2019-11-26T10:18:40Z,42.805,6.029,13.2966,4.59966,2470.026,2019-11-26T12:19:09Z
2019-11-26T10:21:43Z,42.805,6.029,13.2967,4.59964,2470.077,2019-11-26T12:22:12Z
2019-11-26T10:24:47Z,42.805,6.029,13.2964,4.59964,2470.04,2019-11-26T12:25:15Z
2019-11-26T10:27:50Z,42.805,6.029,13.2968,4.59964,2470.017,2019-11-26T12:28:18Z
2019-11-26T10:30:53Z,42.805,6.029,13.2960,4.59964,2470.063,2019-11-26T12:31:22Z
2019-11-26T10:33:56Z,42.805,6.029,13.2968,4.59963,2470.053,2019-11-26T12:34:25Z
2019-11-26T10:36:59Z,42.805,6.029,13.2968,4.59965,2470.063,2019-11-26T12:37:28Z
2019-11-26T10:40:03Z,42.805,6.029,13.2963,4.59965,2470.053,2019-11-26T12:40:31Z
2019-11-26T10:43:06Z,42.805,6.029,13.2964,4.59964,2470.077,2019-11-26T12:43:34Z
2019-11-26T10:46:09Z,42.805,6.029,13.2967,4.59966,2470.017,2019-11-26T12:46:38Z
2019-11-26T10:49:12Z,42.805,6.029,13.2964,4.59964,2470.017,2019-11-26T12:49:41Z
2019-11-26T10:52:16Z,42.805,6.029,13.2963,4.59964,2470.04,2019-11-26T12:52:44Z
2019-11-26T10:55:19Z,42.805,6.029,13.2965,4.59963,2470.017,2019-11-26T12:55:48Z
2019-11-26T10:58:22Z,42.805,6.029,13.2969,4.59963,2470.04,2019-11-26T12:58:51Z
2019-11-26T11:01:25Z,42.805,6.029,13.2969,4.59963,2470.04,2019-11-26T13:01:54Z
2019-11-26T11:04:29Z,42.805,6.029,13.2964,4.59965,2470.007,2019-11-26T13:04:57Z
2019-11-26T11:07:32Z,42.805,6.029,13.2967,4.59963,2470.007,2019-11-26T13:08:01Z
2019-11-26T11:10:35Z,42.805,6.029,13.2967,4.59964,2470.03,2019-11-26T13:11:04Z
2019-11-26T11:13:38Z,42.805,6.029,13.2964,4.59965,2469.993,2019-11-26T13:14:07Z
2019-11-26T11:16:42Z,42.805,6.029,13.2962,4.59963,2470.017,2019-11-26T13:17:10Z
2019-11-26T11:19:45Z,42.805,6.029,13.2966,4.59963,2470.017,2019-11-26T13:20:14Z
2019-11-26T11:22:48Z,42.805,6.029,13.2962,4.59964,2470.017,2019-11-26T13:23:17Z
2019-11-26T11:25:51Z,42.805,6.029,13.2965,4.59963,2470.03,2019-11-26T13:26:20Z
2019-11-26T11:28:55Z,42.805,6.029,13.2962,4.59963,2470.007,2019-11-26T13:29:23Z
2019-11-26T11:31:58Z,42.805,6.029,13.2963,4.59965,2470.03,2019-11-26T13:32:26Z
2019-11-26T11:35:01Z,42.805,6.029,13.2965,4.59963,2470.03,2019-11-26T13:35:30Z
2019-11-26T11:38:04Z,42.805,6.029,13.2964,4.59966,2470.017,2019-11-26T13:38:33Z
2019-11-26T11:41:07Z,42.805,6.029,13.2965,4.59963,2469.984,2019-11-26T13:41:36Z
2019-11-26T11:44:11Z,42.805,6.029,13.2967,4.59963,2469.993,2019-11-26T13:44:39Z
2019-11-26T11:47:14Z,42.805,6.029,13.2961,4.59963,2469.984,2019-11-26T13:47:42Z
2019-11-26T11:50:17Z,42.805,6.029,13.2967,4.59963,2470.03,2019-11-26T13:50:46Z
2019-11-26T11:53:20Z,42.805,6.029,13.2966,4.59963,2469.993,2019-11-26T13:53:49Z
2019-11-26T11:56:23Z,42.805,6.029,13.2967,4.59963,2470.007,2019-11-26T13:56:52Z
2019-11-26T11:59:27Z,42.805,6.029,13.2968,4.59964,2470.007,2019-11-26T13:59:55Z
2019-11-26T12:02:30Z,42.805,6.029,13.2965,4.59964,2469.993,2019-11-26T14:02:58Z
2019-11-26T12:05:33Z,42.805,6.029,13.2966,4.59963,2469.984,2019-11-26T14:06:02Z
2019-11-26T12:08:36Z,42.805,6.029,13.2963,4.59964,2470.04,2019-11-26T14:09:05Z
2019-11-26T12:11:39Z,42.805,6.029,13.2962,4.59964,2469.993,2019-11-26T14:12:08Z
2019-11-26T12:14:43Z,42.805,6.029,13.2967,4.59963,2469.993,2019-11-26T14:15:11Z
2019-11-26T12:17:46Z,42.805,6.029,13.2969,4.59963,2469.993,2019-11-26T14:18:14Z
2019-11-26T12:20:49Z,42.805,6.029,13.2965,4.59963,2469.947,2019-11-26T14:21:18Z
2019-11-26T12:23:52Z,42.805,6.029,13.2964,4.59963,2469.947,2019-11-26T14:24:21Z
2019-11-26T12:26:55Z,42.805,6.029,13.2966,4.59964,2469.993,2019-11-26T14:27:24Z
2019-11-26T12:29:59Z,42.805,6.029,13.2960,4.59965,2470.007,2019-11-26T14:30:27Z
2019-11-26T12:33:02Z,42.805,6.029,13.2967,4.59964,2469.947,2019-11-26T14:33:31Z
2019-11-26T12:36:05Z,42.805,6.029,13.2967,4.59964,2469.984,2019-11-26T14:36:34Z
2019-11-26T12:39:08Z,42.805,6.029,13.2964,4.59964,2469.993,2019-11-26T14:39:37Z
2019-11-26T12:42:11Z,42.805,6.029,13.2965,4.59964,2469.937,2019-11-26T14:42:40Z
2019-11-26T12:45:15Z,42.805,6.029,13.2965,4.59967,2469.96,2019-11-26T14:45:43Z
2019-11-26T12:48:18Z,42.805,6.029,13.2963,4.59964,2469.984,2019-11-26T14:48:46Z
2019-11-26T12:51:21Z,42.805,6.029,13.2965,4.59964,2469.97,2019-11-26T14:51:50Z
2019-11-26T12:54:24Z,42.805,6.029,13.2964,4.59964,2469.97,2019-11-26T14:54:53Z
2019-11-26T12:57:27Z,42.805,6.029,13.2963,4.59964,2469.97,2019-11-26T14:57:56Z
2019-11-26T13:00:31Z,42.805,6.029,13.2961,4.59966,2469.947,2019-11-26T15:00:59Z
2019-11-26T13:03:34Z,42.805,6.029,13.2964,4.59965,2469.937,2019-11-26T15:04:02Z
2019-11-26T13:06:37Z,42.805,6.029,13.2966,4.59963,2469.96,2019-11-26T15:07:06Z
2019-11-26T13:09:40Z,42.805,6.029,13.2965,4.59967,2469.96,2019-11-26T15:10:09Z
2019-11-26T13:12:43Z,42.805,6.029,13.2965,4.59963,2469.947,2019-11-26T15:13:12Z
2019-11-26T13:15:47Z,42.805,6.029,13.2963,4.59964,2469.947,2019-11-26T15:16:15Z
2019-11-26T13:18:50Z,42.805,6.029,13.2967,4.59964,2469.947,2019-11-26T15:19:18Z
2019-11-26T13:21:53Z,42.805,6.029,13.2964,4.59965,2469.947,2019-11-26T15:22:22Z
2019-11-26T13:24:56Z,42.805,6.029,13.2966,4.59964,2469.984,2019-11-26T15:25:25Z
2019-11-26T13:27:59Z,42.805,6.029,13.2967,4.59964,2469.947,2019-11-26T15:28:28Z
2019-11-26T13:31:03Z,42.805,6.029,13.2965,4.59965,2469.947,2019-11-26T15:31:31Z
2019-11-26T13:34:06Z,42.805,6.029,13.2961,4.59964,2469.937,2019-11-26T15:34:34Z
2019-11-26T13:37:09Z,42.805,6.029,13.2967,4.59964,2469.947,2019-11-26T15:37:38Z
2019-11-26T13:40:12Z,42.805,6.029,13.2965,4.59963,2469.947,2019-11-26T15:40:41Z
2019-11-26T13:43:15Z,42.805,6.029,13.2963,4.59965,2469.947,2019-11-26T15:43:44Z
2019-11-26T13:46:19Z,42.805,6.029,13.2970,4.59966,2469.937,2019-11-26T15:46:47Z
2019-11-26T13:49:22Z,42.805,6.029,13.2967,4.59964,2469.97,2019-11-26T15:49:50Z
2019-11-26T13:52:25Z,42.805,6.029,13.2962,4.59964,2469.96,2019-11-26T15:52:54Z
2019-11-26T13:55:28Z,42.805,6.029,13.2967,4.59966,2469.933,2019-11-26T15:55:57Z
2019-11-26T13:58:31Z,42.805,6.029,13.2965,4.59964,2469.984,2019-11-26T15:59:00Z
2019-11-26T14:01:35Z,42.805,6.029,13.2966,4.59966,2469.97,2019-11-26T16:02:03Z
2019-11-26T14:04:38Z,42.805,6.029,13.2966,4.59964,2469.923,2019-11-26T16:05:06Z
2019-11-26T14:07:41Z,42.805,6.029,13.2968,4.59965,2469.937,2019-11-26T16:08:10Z
2019-11-26T14:10:44Z,42.805,6.029,13.2965,4.59963,2469.97,2019-11-26T16:11:13Z
2019-11-26T14:13:47Z,42.805,6.029,13.2964,4.59966,2469.97,2019-11-26T16:14:16Z
2019-11-26T14:16:51Z,42.805,6.029,13.2964,4.59966,2469.97,2019-11-26T16:17:19Z
2019-11-26T14:19:54Z,42.805,6.029,13.2968,4.59966,2469.947,2019-11-26T16:20:22Z
2019-11-26T14:22:57Z,42.805,6.029,13.2964,4.59965,2469.96,2019-11-26T16:23:25Z
2019-11-26T14:26:00Z,42.805,6.029,13.2967,4.59967,2469.947,2019-11-26T16:26:29Z
2019-11-26T14:29:03Z,42.805,6.029,13.2966,4.59965,2469.97,2019-11-26T16:29:32Z
2019-11-26T14:32:07Z,42.805,6.029,13.2967,4.59966,2470.007,2019-11-26T16:32:35Z
2019-11-26T14:35:10Z,42.805,6.029,13.2969,4.59966,2469.947,2019-11-26T16:35:38Z
2019-11-26T14:38:13Z,42.805,6.029,13.2968,4.59967,2469.947,2019-11-26T16:38:42Z
2019-11-26T14:41:16Z,42.805,6.029,13.2966,4.59966,2469.984,2019-11-26T16:41:45Z
2019-11-26T14:44:19Z,42.805,6.029,13.2964,4.59966,2469.984,2019-11-26T16:44:48Z
2019-11-26T14:47:23Z,42.805,6.029,13.2967,4.59966,2469.97,2019-11-26T16:47:51Z
2019-11-26T14:50:26Z,42.805,6.029,13.2968,4.59965,2470.007,2019-11-26T16:50:54Z
2019-11-26T14:53:29Z,42.805,6.029,13.2968,4.59966,2469.984,2019-11-26T16:53:58Z
2019-11-26T14:56:32Z,42.805,6.029,13.2967,4.59966,2469.993,2019-11-26T16:57:01Z
2019-11-26T14:59:35Z,42.805,6.029,13.2966,4.59966,2469.97,2019-11-26T17:00:04Z
2019-11-26T15:02:39Z,42.805,6.029,13.2967,4.59966,2469.947,2019-11-26T17:03:07Z